Location: Unspecified
(52.4292°N, 19.3359°E)
Time: 16:31:30
(UTC+02:00)

Transit 2A Rocket - Pass Details

Date: 26 May 2024
Orbit: 583 x 910 km, 66.7° (Epoch: 14 June)

Event Time Altitude Azimuth Distance (km) Brightness Sun altitude
Rises 11:11:29 0° 320° (NW) 3,376 8.0 54.5°
Reaches altitude 10° 11:13:55 10° 323° (NW) 2,481 7.4 54.7°
Maximum altitude 11:19:41 65° 46° (NE) 973 6.4 55.2°
Drops below altitude 10° 11:25:43 10° 128° (SE) 2,589 8.4 55.7°
Sets 11:28:17 0° 131° (SE) 3,532 8.9 55.9°
